TimeEST,TemperatureF,Dew PointF,Humidity,Sea Level PressureIn,VisibilityMPH,Wind Direction,Wind SpeedMPH,Gust SpeedMPH,PrecipitationIn,Events,Conditions,WindDirDegrees,DateUTC
12:54 AM,62.1,48.0,60,29.90,10.0,SW,11.5,18.4,N/A,,Overcast,220,2011-11-28 05:54:00
1:54 AM,62.1,48.0,60,29.92,10.0,SW,11.5,-,N/A,,Overcast,230,2011-11-28 06:54:00
2:54 AM,62.1,48.0,60,29.94,10.0,WSW,12.7,18.4,0.00,Rain,Light Rain,240,2011-11-28 07:54:00
3:54 AM,61.0,48.9,64,29.96,10.0,WSW,15.0,26.5,0.00,Rain,Light Rain,240,2011-11-28 08:54:00
4:54 AM,57.0,51.1,81,29.97,10.0,NNW,9.2,-,0.00,,Light Drizzle,330,2011-11-28 09:54:00
5:52 AM,53.6,50.0,88,30.02,5.0,NNW,9.2,-,0.00,Rain,Light Rain,340,2011-11-28 10:52:00
5:54 AM,53.1,50.0,89,30.01,5.0,NNW,11.5,-,0.00,Rain,Light Rain,330,2011-11-28 10:54:00
6:26 AM,50.0,48.2,94,30.05,6.0,NNW,9.2,-,0.01,Rain,Light Rain,330,2011-11-28 11:26:00
6:54 AM,48.9,46.0,90,30.04,9.0,NNW,6.9,-,0.04,Rain,Light Rain,340,2011-11-28 11:54:00
7:32 AM,48.2,44.6,87,30.08,10.0,NW,12.7,-,0.00,Rain,Light Rain,320,2011-11-28 12:32:00
7:54 AM,48.0,44.1,86,30.08,6.0,NW,10.4,-,0.02,,Light Drizzle,310,2011-11-28 12:54:00
8:45 AM,46.4,44.6,93,30.11,6.0,WNW,4.6,-,0.05,,Light Drizzle,290,2011-11-28 13:45:00
8:54 AM,46.9,44.1,90,30.11,7.0,WNW,6.9,-,0.06,,Light Drizzle,290,2011-11-28 13:54:00
9:40 AM,46.4,42.8,87,30.13,7.0,NW,6.9,-,0.02,,Light Drizzle,320,2011-11-28 14:40:00
9:54 AM,46.0,43.0,89,30.12,7.0,North,5.8,-,0.03,,Light Drizzle,350,2011-11-28 14:54:00
10:42 AM,46.4,42.8,87,30.14,9.0,WNW,5.8,-,0.00,,Light Drizzle,300,2011-11-28 15:42:00
10:54 AM,46.0,42.1,86,30.13,4.0,NW,6.9,-,0.00,,Light Drizzle,320,2011-11-28 15:54:00
11:54 AM,46.0,41.0,83,30.11,10.0,Calm,Calm,-,0.00,,Overcast,0,2011-11-28 16:54:00
12:54 PM,46.0,41.0,83,30.09,8.0,Calm,Calm,-,0.00,,Light Drizzle,0,2011-11-28 17:54:00
1:54 PM,46.9,42.1,83,30.08,10.0,SSW,5.8,-,0.00,,Light Drizzle,210,2011-11-28 18:54:00
2:54 PM,48.0,43.0,83,30.06,10.0,ENE,4.6,-,0.00,,Overcast,60,2011-11-28 19:54:00
3:19 PM,48.2,44.6,87,30.07,10.0,NE,5.8,-,N/A,,Overcast,40,2011-11-28 20:19:00
3:54 PM,46.9,43.0,86,30.06,10.0,NE,5.8,-,N/A,,Overcast,40,2011-11-28 20:54:00
4:14 PM,46.4,42.8,87,30.09,10.0,NNE,6.9,-,N/A,,Overcast,30,2011-11-28 21:14:00
4:54 PM,46.0,43.0,89,30.08,10.0,Calm,Calm,-,N/A,,Overcast,0,2011-11-28 21:54:00
5:54 PM,46.9,43.0,86,30.09,10.0,Calm,Calm,-,N/A,,Overcast,0,2011-11-28 22:54:00
6:26 PM,46.4,42.8,87,30.07,10.0,Calm,Calm,-,N/A,,Overcast,0,2011-11-28 23:26:00
6:54 PM,46.0,43.0,89,30.06,10.0,ENE,3.5,-,N/A,,Overcast,70,2011-11-28 23:54:00
7:16 PM,46.4,44.6,93,30.06,10.0,Calm,Calm,-,N/A,,Overcast,0,2011-11-29 00:16:00
7:34 PM,46.4,42.8,87,30.07,10.0,Calm,Calm,-,N/A,,Overcast,0,2011-11-29 00:34:00
7:54 PM,45.0,43.0,93,30.05,10.0,NNE,3.5,-,N/A,,Overcast,20,2011-11-29 00:54:00
8:04 PM,44.6,42.8,93,30.05,9.0,Calm,Calm,-,N/A,,Overcast,0,2011-11-29 01:04:00
8:50 PM,46.4,44.6,93,30.05,10.0,Calm,Calm,-,N/A,,Overcast,0,2011-11-29 01:50:00
8:54 PM,46.0,44.1,93,30.04,10.0,Calm,Calm,-,N/A,,Overcast,0,2011-11-29 01:54:00
9:33 PM,46.4,42.8,87,30.04,8.0,Calm,Calm,-,N/A,,Overcast,0,2011-11-29 02:33:00
9:54 PM,45.0,43.0,93,30.02,8.0,Calm,Calm,-,N/A,Fog,Patches of Fog,0,2011-11-29 02:54:00
10:01 PM,44.6,42.8,93,30.02,9.0,Calm,Calm,-,N/A,Fog,Patches of Fog,0,2011-11-29 03:01:00
10:21 PM,46.4,44.6,93,30.02,0.5,SE,3.5,-,N/A,Fog,Patches of Fog,130,2011-11-29 03:21:00
10:54 PM,46.0,44.1,93,30.02,0.5,Calm,Calm,-,N/A,,Overcast,0,2011-11-29 03:54:00
11:54 PM,46.0,44.1,93,29.99,1.5,Calm,Calm,-,N/A,,Overcast,0,2011-11-29 04:54:00